Temp
-7 -6 -7 -7 -7 -7 -7 -6 -6 -6 -6 -7 -7 -7 -7 -7 -7 -7 -6 -6 -6 -5 -5 -5 -5 -5 -5 -5 -5 -5 -5 -5 -5 -5 -5 -5 -5 -5 -5 -6 -6 -6 -5 -5 -5 -5 -5 -5 -6
-8 -7 -7 -7 -7 -7 -8 -6 -7 -6 -6 -7 -7 -7 -7 -7 -7 -7 -6 -7 -6 -6 -5 -5 -5 -6 -6 -5 -5 -5 -5 -5 -6 -5 -6 -6 -6 -6 -6 -6 -6 -6 -6 -6 -6 -6 -6 -6 -6
-7 -7 -8 -7 -7 -7 -8 -7 -7 -6 -6 -6 -6 -7 -7 -7 -7 -7 -7 -7 -7 -6 -6 -5 -5 -6 -6 -5 -6 -6 -6 -6 -6 -7 -7 -6 -6 -7 -7 -7 -7 -7 -7 -7 -7 -6 -6 -6 -6
-7 -7 -7 -7 -8 -8 -7 -7 -7 -7 -7 -6 -6 -7 -7 -7 -7 -8 -7 -7 -7 -7 -7 -7 -6 -6 -6 -6 -6 -6 -6 -6 -6 -6 -7 -7 -7 -7 -7 -7 -7 -7 -7 -7 -7 -7 -7 -7 -7
-7 -7 -7 -7 -8 -7 -8 -8 -8 -8 -7 -7 -7 -6 -7 -7 -7 -7 -8 -7 -7 -7 -7 -7 -6 -6 -6 -6 -6 -6 -6 -6 -6 -6 -7 -7 -7 -7 -8 -8 -7 -7 -8 -7 -8 -8 -8 -8 -7
-8 -7 -7 -7 -7 -8 -9 -8 -8 -8 -8 -7 -7 -7 -7 -7 -7 -7 -7 -8 -8 -7 -7 -7 -7 -7 -6 -6 -6 -6 -7 -7 -7 -7 -7 -7 -7 -7 -8 -8 -8 -8 -8 -8 -8 -8 -8 -8 -8
-8 -7 -7 -7 -7 -8 -9 -9 -9 -8 -8 -8 -8 -8 -8 -7 -7 -7 -7 -8 -8 -8 -8 -7 -7 -8 -7 -7 -7 -7 -7 -7 -7 -7 -7 -8 -8 -7 -8 -8 -8 -8 -8 -8 -8 -8 -8 -8 -8
-8 -7 -8 -7 -7 -8 -8 -8 -9 -8 -8 -8 -8 -8 -9 -8 -8 -8 -8 -8 -8 -8 -8 -8 -8 -8 -8 -8 -8 -8 -8 -8 -8 -8 -8 -8 -8 -8 -8 -8 -8 -8 -8 -8 -8 -8 -9 -9 -9
-8 -8 -8 -8 -8 -8 -8 -8 -8 -8 -8 -8 -8 -8 -8 -8 -8 -8 -9 -8 -9 -9 -9 -9 -9 -9 -9 -9 -9 -9 -8 -8 -8 -8 -8 -8 -8 -8 -8 -9 -9 -9 -8 -8 -9 -9 -9 -9 -9
-9 -8 -9 -8 -9 -8 -8 -7 -7 -7 -8 -7 -7 -7 -8 -7 -7 -8 -8 -8 -9 -9 -9 -8 -9 -9 -9 -9 -9 -9 -9 -9 -9 -9 -9 -9 -9 -9 -9 -9 -9 -9 -9 -9 -9 -9 -9 -9 -9
-9 -9 -9 -9 -9 -9 -8 -8 -8 -8 -8 -8 -8 -8 -8 -9 -9 -9 -8 -9 -9 -8 -9 -9 -9 -9 -9 -9 -9 -9 -9 -9 -9 -9 -9 -10 -10 -10 -10 -9 -10 -10 -10 -9 -9 -9 -9 -9 -9
-9 -9 -9 -9 -9 -9 -9 -9 -9 -8 -8 -9 -9 -9 -8 -8 -9 -10 -10 -10 -9 -9 -9 -9 -9 -10 -10 -10 -10 -9 -11 -10 -10 -10 -10 -10 -10 -9 -10 -10 -10 -10 -10 -10 -10 -10 -10 -10 -10
-10 -10 -9 -9 -9 -9 -9 -9 -9 -8 -8 -9 -9 -9 -9 -9 -9 -10 -10 -10 -10 -10 -10 -10 -10 -10 -11 -11 -11 -11 -11 -11 -11 -11 -11 -11 -11 -10 -10 -10 -11 -10 -10 -10 -10 -10 -10 -10 -10
-9 -10 -10 -10 -10 -9 -9 -9 -9 -9 -9 -9 -9 -9 -9 -9 -9 -9 -10 -10 -10 -10 -10 -10 -10 -10 -10 -11 -11 -11 -11 -11 -11 -11 -11 -11 -11 -11 -10 -10 -11 -11 -11 -10 -10 -10 -10 -10 -10
-10 -10 -10 -10 -10 -9 -9 -9 -9 -10 -9 -9 -9 -9 -9 -9 -9 -9 -9 -9 -10 -9 -10 -10 -10 -10 -10 -10 -11 -11 -12 -12 -11 -11 -11 -11 -11 -11 -11 -10 -10 -10 -11 -12 -11 -11 -11 -11 -11
-10 -10 -10 -10 -10 -10 -10 -10 -10 -10 -10 -9 -10 -10 -9 -9 -9 -9 -9 -9 -9 -10 -10 -10 -10 -10 -11 -11 -12 -12 -12 -12 -12 -11 -11 -12 -11 -11 -11 -11 -11 -10 -10 -12 -13 -12 -12 -11 -11
-11 -11 -11 -11 -11 -11 -11 -11 -11 -11 -11 -10 -10 -10 -10 -10 -10 -10 -10 -10 -10 -10 -10 -10 -10 -11 -11 -12 -11 -11 -12 -12 -12 -12 -12 -12 -12 -11 -10 -11 -11 -11 -11 -12 -12 -12 -12 -12 -12
-11 -11 -11 -11 -11 -11 -11 -11 -11 -11 -11 -11 -11 -11 -11 -11 -11 -11 -11 -11 -11 -12 -11 -11 -11 -11 -12 -12 -12 -12 -12 -12 -12 -13 -12 -12 -13 -12 -11 -11 -11 -12 -11 -11 -11 -13 -12 -11 -10
-11 -11 -11 -11 -11 -10 -11 -10 -10 -11 -11 -11 -11 -11 -11 -12 -12 -11 -11 -11 -11 -11 -12 -12 -12 -12 -13 -13 -12 -12 -11 -12 -12 -12 -13 -13 -13 -13 -13 -11 -12 -12 -10 -11 -11 -12 -11 -12 -12
-11 -11 -11 -11 -11 -10 -11 -10 -10 -11 -11 -11 -11 -11 -11 -12 -12 -12 -11 -12 -12 -12 -12 -12 -12 -13 -13 -14 -14 -13 -12 -12 -12 -12 -12 -13 -13 -13 -13 -13 -13 -12 -12 -12 -11 -11 -11 -11 -12
-11 -11 -11 -11 -11 -11 -11 -11 -11 -11 -11 -11 -11 -11 -11 -11 -11 -11 -12 -12 -12 -12 -12 -12 -12 -12 -13 -13 -13 -14 -14 -13 -12 -12 -13 -13 -14 -14 -14 -13 -13 -13 -13 -12 -12 -12 -12 -11 -11
-12 -12 -12 -12 -12 -12 -12 -11 -11 -12 -11 -12 -12 -12 -11 -11 -11 -11 -12 -12 -12 -12 -12 -13 -13 -13 -13 -13 -13 -13 -14 -14 -14 -14 -14 -14 -14 -14 -13 -13 -13 -13 -12 -12 -12 -13 -13 -12 -11
-12 -12 -12 -12 -12 -12 -12 -12 -11 -11 -12 -12 -12 -12 -11 -11 -11 -11 -11 -11 -12 -12 -12 -12 -13 -13 -14 -14 -14 -14 -14 -14 -14 -14 -14 -14 -14 -14 -14 -13 -13 -13 -13 -12 -13 -13 -13 -12 -12
-13 -13 -13 -13 -13 -12 -12 -12 -12 -12 -12 -12 -12 -12 -12 -12 -12 -12 -12 -12 -12 -12 -12 -12 -13 -13 -13 -14 -14 -14 -14 -14 -15 -15 -15 -15 -15 -15 -14 -13 -13 -13 -13 -12 -13 -13 -12 -12 -11
-14 -14 -14 -14 -15 -14 -15 -13 -12 -13 -12 -13 -13 -13 -12 -12 -12 -12 -12 -12 -12 -12 -12 -12 -13 -13 -13 -13 -14 -14 -14 -15 -15 -16 -16 -16 -16 -15 -15 -14 -14 -14 -14 -14 -13 -13 -12 -12 -12
-16 -17 -16 -16 -16 -16 -16 -14 -15 -12 -12 -13 -13 -13 -13 -13 -13 -13 -13 -12 -13 -13 -14 -14 -13 -13 -13 -14 -14 -14 -14 -15 -15 -15 -16 -16 -16 -16 -15 -15 -14 -14 -14 -14 -14 -13 -13 -13 -12
-15 -15 -15 -15 -14 -14 -14 -13 -13 -13 -12 -13 -13 -13 -13 -13 -13 -13 -14 -14 -14 -13 -13 -14 -14 -14 -14 -14 -14 -15 -15 -15 -15 -16 -16 -16 -16 -16 -16 -16 -15 -15 -14 -14 -14 -14 -14 -14 -14
-15 -15 -15 -15 -14 -14 -14 -14 -14 -13 -13 -13 -13 -13 -13 -13 -13 -13 -13 -13 -14 -14 -14 -14 -14 -15 -15 -15 -15 -15 -15 -15 -15 -16 -16 -16 -16 -17 -17 -16 -16 -16 -15 -15 -14 -14 -14 -13 -14
-16 -15 -15 -15 -15 -14 -13 -13 -14 -14 -15 -14 -14 -13 -13 -14 -14 -14 -14 -14 -15 -16 -16 -16 -16 -15 -15 -15 -16 -16 -16 -16 -17 -17 -17 -17 -17 -17 -17 -17 -17 -16 -16 -16 -16 -15 -15 -14 -14
-16 -16 -16 -16 -14 -14 -14 -12 -14 -15 -15 -15 -15 -14 -14 -15 -15 -15 -16 -16 -17 -17 -18 -17 -17 -17 -17 -16 -17 -17 -17 -17 -18 -18 -18 -18 -17 -17 -18 -18 -18 -18 -17 -17 -16 -15 -15 -15 -15
Height
5877 5878 5882 5885 5890 5890 5892 5891 5893 5893 5896 5897 5901 5903 5904 5906 5907 5911 5910 5911 5912 5913 5914 5914 5914 5914 5914 5914 5914 5914 5913 5913 5912 5912 5912 5912 5912 5912 5913 5913 5913 5914 5913 5912 5912 5911 5910 5909 5908
5873 5876 5878 5881 5884 5887 5890 5887 5889 5890 5892 5894 5897 5900 5901 5901 5903 5905 5907 5908 5909 5911 5912 5912 5912 5912 5912 5913 5913 5912 5912 5911 5911 5911 5911 5910 5910 5911 5912 5913 5913 5913 5913 5912 5912 5911 5910 5909 5909
5870 5872 5873 5875 5878 5883 5881 5884 5885 5886 5887 5890 5892 5895 5897 5897 5899 5900 5902 5904 5906 5908 5909 5911 5911 5911 5910 5911 5911 5911 5911 5911 5910 5910 5910 5910 5910 5910 5911 5912 5912 5911 5911 5910 5909 5909 5909 5909 5908
5865 5868 5869 5870 5873 5872 5876 5879 5880 5882 5883 5885 5888 5887 5892 5893 5894 5896 5898 5900 5901 5902 5904 5907 5909 5909 5909 5908 5909 5909 5910 5910 5910 5909 5909 5909 5909 5910 5911 5911 5909 5909 5910 5909 5908 5907 5907 5907 5907
5859 5861 5862 5865 5867 5869 5870 5873 5875 5875 5879 5881 5883 5885 5886 5887 5888 5889 5891 5893 5896 5898 5899 5901 5905 5906 5906 5907 5906 5907 5907 5908 5908 5908 5908 5908 5907 5908 5909 5909 5910 5909 5908 5907 5906 5906 5906 5905 5905
5853 5855 5856 5860 5862 5863 5863 5866 5869 5869 5874 5877 5878 5881 5881 5880 5881 5882 5884 5886 5891 5894 5897 5897 5898 5901 5903 5903 5903 5903 5904 5904 5905 5906 5906 5905 5905 5906 5906 5907 5907 5908 5907 5906 5905 5904 5904 5904 5904
5846 5849 5850 5853 5855 5858 5859 5858 5861 5862 5866 5867 5873 5875 5875 5876 5876 5878 5880 5883 5886 5888 5891 5893 5894 5895 5896 5898 5899 5899 5900 5901 5901 5902 5903 5903 5903 5902 5903 5904 5905 5904 5904 5904 5904 5902 5902 5901 5901
5839 5841 5842 5845 5848 5853 5850 5854 5849 5854 5855 5860 5868 5868 5868 5871 5875 5875 5877 5878 5880 5881 5883 5885 5888 5890 5891 5892 5894 5895 5896 5896 5898 5898 5898 5899 5900 5900 5900 5900 5901 5902 5902 5901 5901 5901 5900 5899 5899
5831 5833 5837 5839 5841 5844 5843 5844 5841 5845 5849 5853 5857 5861 5862 5865 5867 5868 5870 5873 5874 5875 5877 5879 5882 5884 5886 5887 5889 5890 5891 5892 5893 5894 5894 5894 5895 5896 5896 5896 5897 5897 5898 5898 5897 5897 5897 5897 5896
5823 5826 5829 5831 5832 5834 5835 5838 5837 5840 5841 5845 5848 5852 5854 5855 5858 5861 5862 5865 5866 5868 5871 5873 5875 5878 5879 5881 5883 5884 5886 5886 5887 5888 5889 5890 5890 5890 5891 5892 5893 5893 5893 5893 5893 5894 5894 5893 5893
5818 5821 5820 5823 5823 5827 5829 5831 5831 5831 5834 5837 5839 5840 5846 5848 5850 5853 5855 5856 5856 5859 5861 5866 5868 5871 5873 5874 5876 5877 5880 5881 5882 5882 5883 5884 5884 5884 5885 5886 5887 5887 5888 5887 5888 5889 5890 5889 5889
5812 5814 5815 5816 5817 5819 5821 5822 5823 5824 5826 5825 5829 5832 5835 5841 5842 5845 5847 5849 5849 5850 5853 5857 5861 5864 5864 5866 5868 5870 5870 5874 5875 5876 5877 5877 5878 5878 5878 5878 5879 5881 5881 5881 5882 5883 5884 5884 5884
5805 5808 5809 5809 5811 5813 5815 5817 5817 5817 5818 5819 5819 5824 5825 5828 5834 5835 5838 5839 5840 5844 5846 5849 5851 5853 5855 5856 5859 5860 5861 5862 5863 5866 5868 5869 5870 5870 5869 5868 5870 5871 5873 5874 5875 5875 5877 5878 5878
5799 5801 5803 5805 5805 5806 5809 5810 5812 5813 5812 5813 5813 5814 5816 5817 5822 5825 5829 5830 5831 5834 5837 5838 5838 5843 5846 5847 5849 5850 5850 5851 5852 5855 5857 5858 5858 5859 5859 5859 5859 5860 5862 5864 5867 5868 5870 5872 5872
5793 5795 5796 5797 5798 5800 5801 5804 5805 5804 5805 5806 5807 5807 5809 5810 5810 5815 5817 5820 5821 5824 5826 5829 5830 5832 5834 5836 5837 5839 5840 5841 5843 5844 5847 5848 5849 5850 5850 5850 5851 5851 5852 5854 5857 5859 5861 5863 5865
5787 5789 5790 5790 5792 5793 5794 5796 5794 5798 5798 5798 5799 5800 5801 5803 5804 5804 5807 5810 5812 5815 5817 5819 5821 5823 5824 5826 5827 5827 5829 5831 5832 5834 5836 5839 5841 5840 5836 5837 5839 5841 5842 5841 5844 5848 5851 5854 5856
5779 5781 5782 5783 5784 5784 5786 5786 5787 5788 5789 5790 5791 5793 5794 5794 5794 5797 5797 5798 5801 5804 5807 5809 5810 5812 5814 5816 5817 5818 5819 5821 5822 5824 5826 5828 5830 5829 5831 5828 5825 5827 5832 5833 5833 5833 5837 5843 5845
5771 5774 5775 5777 5775 5776 5775 5776 5777 5779 5779 5781 5782 5783 5785 5786 5786 5785 5788 5788 5789 5790 5794 5797 5798 5800 5801 5803 5805 5807 5809 5810 5813 5815 5817 5818 5818 5818 5814 5818 5821 5821 5823 5821 5825 5829 5830 5831 5833
5768 5769 5770 5770 5768 5768 5770 5768 5769 5771 5771 5772 5773 5773 5776 5777 5777 5776 5775 5776 5777 5778 5779 5782 5784 5788 5790 5790 5792 5795 5797 5798 5800 5802 5805 5807 5808 5808 5809 5808 5806 5808 5807 5815 5819 5820 5819 5822 5825
5761 5762 5763 5763 5760 5761 5764 5762 5764 5764 5765 5765 5766 5767 5767 5766 5765 5764 5764 5765 5765 5766 5765 5766 5768 5771 5775 5777 5780 5780 5781 5783 5786 5789 5792 5793 5796 5796 5798 5797 5798 5800 5799 5799 5803 5809 5809 5812 5814
5754 5754 5754 5755 5753 5754 5754 5754 5757 5756 5755 5756 5757 5757 5757 5755 5753 5754 5753 5754 5754 5755 5755 5755 5756 5757 5759 5763 5765 5767 5768 5771 5773 5775 5778 5780 5781 5783 5783 5785 5787 5789 5789 5790 5790 5792 5797 5800 5803
5745 5747 5746 5747 5747 5747 5741 5742 5746 5747 5745 5748 5746 5745 5744 5742 5744 5744 5745 5746 5745 5744 5744 5744 5745 5745 5747 5748 5749 5752 5755 5757 5761 5762 5763 5764 5765 5766 5767 5769 5773 5776 5778 5781 5783 5782 5782 5787 5790
5738 5737 5737 5737 5737 5736 5739 5732 5737 5736 5739 5737 5736 5733 5730 5731 5732 5732 5733 5734 5734 5733 5733 5732 5732 5733 5734 5734 5735 5736 5739 5743 5746 5748 5748 5750 5750 5752 5754 5755 5757 5761 5764 5769 5772 5772 5774 5776 5777
5726 5729 5727 5726 5727 5724 5729 5725 5727 5726 5726 5727 5724 5720 5723 5722 5719 5718 5716 5715 5716 5718 5719 5719 5720 5720 5720 5720 5721 5723 5725 5729 5730 5731 5734 5736 5737 5740 5741 5743 5745 5747 5750 5753 5755 5760 5764 5761 5764
5719 5718 5718 5718 5718 5715 5717 5710 5713 5713 5714 5715 5714 5711 5712 5710 5707 5705 5702 5700 5699 5700 5700 5702 5703 5704 5703 5704 5705 5707 5710 5713 5716 5717 5720 5722 5724 5726 5728 5730 5732 5735 5737 5739 5739 5744 5748 5751 5753
5709 5710 5709 5706 5709 5710 5708 5700 5702 5694 5701 5702 5701 5701 5698 5695 5692 5691 5690 5689 5686 5684 5683 5683 5685 5687 5687 5687 5689 5690 5693 5696 5699 5702 5705 5707 5708 5711 5716 5720 5721 5723 5726 5728 5730 5732 5736 5740 5743
5704 5701 5702 5696 5696 5691 5694 5692 5690 5686 5688 5689 5687 5685 5682 5682 5682 5679 5677 5675 5673 5671 5669 5668 5666 5666 5667 5670 5672 5674 5675 5678 5682 5685 5688 5691 5693 5695 5702 5705 5707 5710 5714 5716 5719 5723 5725 5727 5732
5693 5693 5691 5690 5685 5681 5683 5682 5680 5675 5674 5673 5673 5669 5668 5667 5664 5661 5660 5659 5657 5654 5653 5651 5650 5648 5647 5648 5650 5654 5656 5660 5664 5668 5671 5673 5678 5681 5685 5690 5693 5695 5699 5703 5707 5710 5713 5715 5719
5680 5680 5679 5679 5678 5672 5671 5672 5667 5667 5667 5662 5658 5654 5654 5651 5649 5646 5643 5640 5637 5635 5633 5631 5629 5628 5626 5626 5628 5630 5635 5640 5645 5649 5652 5656 5660 5665 5670 5675 5678 5681 5685 5690 5693 5696 5699 5702 5706
5668 5669 5669 5666 5666 5664 5659 5660 5659 5657 5655 5648 5646 5644 5642 5639 5636 5631 5628 5625 5622 5619 5616 5613 5611 5611 5609 5608 5608 5611 5616 5622 5628 5631 5634 5638 5643 5649 5654 5658 5663 5668 5673 5676 5680 5683 5687 5689 5691
Wind_Speed
25 25 26 29 29 30 30 35 30 30 31 30 28 26 26 24 22 22 13 14 11 9 9 9 6 4 3 1 3 4 4 3 3 4 5 6 8 8 8 6 5 7 7 7 8 8 11 12 13
27 25 25 26 30 30 26 34 33 33 32 31 31 30 30 28 27 27 22 19 18 14 13 13 11 8 6 4 1 2 5 3 3 2 2 2 3 5 5 5 6 7 9 9 8 7 9 11 12
31 29 30 29 27 27 27 34 34 34 34 34 33 31 33 32 31 30 29 26 24 22 18 16 16 14 13 11 7 5 6 8 4 2 2 1 1 2 1 2 3 5 7 8 9 9 9 11 11
29 33 34 35 30 33 34 29 35 36 37 35 34 37 33 35 37 35 34 33 31 28 26 22 20 20 20 19 16 13 10 10 10 8 4 3 5 5 3 4 5 5 6 8 9 10 10 11 11
32 33 37 35 36 33 35 31 32 33 34 36 36 35 36 37 37 40 42 39 35 33 31 28 24 24 23 24 22 19 16 14 11 10 11 8 8 7 6 6 8 8 8 8 10 12 12 11 12
38 39 40 38 37 38 37 36 36 36 33 34 38 38 37 39 39 40 43 43 40 37 35 34 30 29 26 26 24 24 22 19 17 15 14 15 13 10 7 8 9 11 11 11 11 12 12 12 12
44 44 43 45 43 41 40 41 39 40 35 40 35 34 38 43 42 42 41 40 39 38 34 33 33 31 29 27 26 26 26 23 19 19 17 16 16 15 12 10 9 11 12 13 13 13 13 12 13
45 46 48 44 47 43 45 42 47 44 47 42 37 40 39 36 35 42 44 41 42 41 38 36 33 33 32 28 28 27 27 27 27 24 21 19 18 18 16 15 13 13 13 13 14 15 14 13 13
43 46 45 44 41 42 46 47 49 47 47 46 45 43 42 40 41 38 40 42 45 43 44 39 34 32 32 31 31 30 30 30 30 30 27 24 23 23 22 21 19 16 16 16 16 16 16 15 14
38 40 40 42 43 45 48 50 52 50 48 50 48 47 46 45 44 46 45 45 43 44 47 46 41 38 38 36 36 36 34 33 31 29 29 26 24 25 25 25 24 21 19 19 19 18 18 17 17
33 33 38 38 40 41 42 44 46 50 48 46 48 48 47 47 46 47 47 47 49 48 48 49 50 50 46 42 40 36 36 34 33 32 29 28 26 25 26 26 26 26 24 22 21 20 19 19 19
30 31 32 34 37 36 36 40 41 44 47 48 48 48 49 47 48 47 47 48 50 51 51 50 49 50 52 49 46 44 48 41 38 37 34 31 32 32 28 30 31 30 28 26 24 24 23 22 22
27 30 32 34 36 37 37 37 39 41 42 42 45 46 49 50 47 48 48 50 50 49 49 49 49 47 49 48 48 50 50 49 42 39 38 39 40 42 43 38 33 34 33 32 30 29 27 26 26
26 28 28 30 34 34 36 36 37 38 41 42 44 44 43 45 45 46 46 48 51 50 48 51 50 47 49 50 51 51 46 42 44 43 46 47 47 49 46 51 48 39 38 36 36 36 35 33 32
25 26 26 26 29 29 31 32 34 38 40 41 42 43 44 46 47 45 45 45 47 47 49 48 48 47 46 48 47 46 46 48 49 47 45 47 48 46 49 50 51 44 43 41 41 41 41 39 37
28 29 29 30 29 30 30 31 35 34 37 39 41 44 45 47 48 50 49 48 48 47 47 47 45 44 42 42 41 42 43 43 47 51 46 43 43 50 57 58 58 55 55 49 47 47 45 44 44
34 32 33 33 32 35 35 35 33 32 35 37 39 41 43 45 48 48 50 51 51 51 50 50 49 47 45 45 44 45 46 46 45 47 48 46 49 55 59 61 65 61 60 56 53 52 51 49 52
30 25 26 26 29 31 33 34 35 36 38 36 37 37 38 42 46 48 49 50 51 52 51 50 50 51 51 50 50 49 49 49 48 45 47 45 46 51 51 51 58 59 63 66 59 56 56 56 56
24 23 23 24 29 30 28 31 30 29 30 32 36 40 39 37 39 44 49 51 52 53 53 53 53 53 54 55 55 53 52 51 51 51 50 51 48 50 55 64 54 60 70 67 61 65 63 61 61
28 28 28 29 34 33 31 35 32 32 32 32 32 32 35 39 43 47 49 49 51 53 56 57 57 56 56 58 60 59 57 55 54 51 52 55 55 57 57 58 62 62 68 69 62 56 64 65 62
31 32 32 34 36 35 36 38 34 35 37 36 37 37 38 41 44 44 46 50 52 53 54 56 58 59 59 57 57 59 61 60 57 55 53 51 54 58 63 65 65 65 65 65 68 65 56 57 61
35 32 34 34 34 35 41 40 36 36 39 35 39 41 44 47 47 47 48 49 49 51 54 56 58 58 57 59 59 59 59 60 60 58 57 58 60 59 61 66 65 63 65 65 65 55 68 60 57
32 33 34 35 36 39 37 45 37 38 35 37 39 43 47 47 48 50 51 51 51 53 54 55 56 57 59 60 60 60 60 59 59 60 63 63 62 63 63 63 64 61 61 58 66 51 59 64 71
36 34 36 37 37 41 35 39 36 37 34 31 37 43 40 43 46 49 52 54 55 55 57 57 58 58 58 59 60 62 62 60 60 59 58 57 60 61 62 62 61 65 65 63 64 60 64 66 65
35 35 36 36 32 35 29 40 37 38 35 32 35 38 37 39 44 47 52 54 55 57 58 58 60 61 62 62 61 61 62 61 61 62 61 60 62 61 61 60 58 59 62 64 65 63 62 62 63
32 33 36 36 30 28 32 41 35 47 37 36 36 34 37 39 43 45 48 51 54 55 57 58 59 61 65 66 66 65 64 63 63 66 65 63 63 64 62 60 62 63 63 64 66 68 66 63 61
35 39 36 41 41 46 41 44 43 46 41 36 36 37 41 41 41 42 43 45 47 51 55 57 59 61 62 64 67 67 65 63 61 61 61 60 63 63 58 57 61 64 64 65 65 65 65 63 59
35 36 38 38 43 45 39 37 38 48 44 42 39 43 45 44 45 46 46 47 48 50 52 57 61 64 67 68 68 69 69 67 64 60 61 62 59 58 58 58 58 62 62 61 61 64 66 66 64
40 37 38 37 39 44 44 43 45 45 41 42 45 49 47 47 46 47 48 50 50 47 45 45 49 59 66 73 76 76 73 71 68 64 63 64 63 62 63 63 60 62 60 56 57 59 61 64 65
37 35 36 40 40 39 44 44 44 42 40 47 47 49 48 47 47 47 46 45 42 42 42 41 41 42 48 57 59 61 70 71 66 63 63 62 64 65 64 59 57 55 47 47 49 53 54 54 57
Wind_Direction
221 214 218 221 223 219 222 232 231 233 234 234 233 238 245 250 243 236 246 247 239 238 223 224 223 214 229 359 43 8 16 14 17 34 49 30 18 21 13 22 13 3 6 18 23 30 43 32 20
225 223 221 225 227 227 228 229 230 234 237 240 239 240 242 243 248 253 248 250 253 249 249 231 227 221 229 241 286 327 321 320 327 346 15 49 36 28 7 359 353 348 353 5 12 15 22 20 22
229 232 232 230 227 230 224 228 231 232 235 239 242 241 241 242 246 253 258 256 255 257 254 252 251 253 257 256 264 281 324 318 297 308 325 286 301 321 312 306 321 322 329 340 348 348 350 2 15
229 234 235 235 230 230 235 229 233 235 236 236 239 242 243 243 242 245 251 258 262 262 263 259 252 254 264 267 271 279 297 309 314 317 301 286 281 297 277 263 254 277 301 313 324 328 337 342 350
228 233 235 235 237 235 241 237 238 238 238 239 238 241 243 246 248 247 246 249 254 259 263 262 253 256 260 265 269 275 282 291 291 308 310 289 268 278 270 268 272 272 272 287 305 314 324 332 336
230 235 237 235 238 240 243 242 237 242 241 239 241 241 243 244 246 247 248 249 251 253 259 264 266 263 261 266 269 273 276 276 277 281 301 295 286 280 274 266 267 270 273 277 286 296 306 315 318
236 236 236 239 240 240 247 251 246 243 247 239 241 248 247 244 248 251 254 255 257 259 259 259 263 263 267 265 271 276 281 281 278 279 287 289 284 280 272 265 265 265 264 268 274 282 291 301 309
236 238 241 240 241 244 246 246 249 254 252 253 241 244 249 251 253 252 255 259 260 257 255 251 251 253 260 259 264 267 272 278 281 281 282 286 288 277 267 266 259 262 260 260 266 273 282 292 300
237 239 241 245 244 243 245 248 249 246 253 257 255 251 252 257 258 256 256 257 252 260 260 256 247 248 249 255 260 263 269 272 276 281 282 278 280 282 277 269 265 258 259 258 260 267 275 282 289
240 240 242 243 244 241 241 245 251 251 249 254 257 259 258 257 257 261 261 262 259 253 253 257 252 246 249 251 253 258 261 260 264 265 270 270 270 271 272 270 270 264 259 256 259 263 267 273 279
243 242 242 245 247 247 246 247 247 251 251 252 253 254 252 250 252 253 253 256 258 256 254 252 253 255 252 252 250 250 254 251 250 252 250 251 251 252 255 261 261 263 260 258 258 260 265 269 271
245 246 246 247 247 247 247 245 247 249 252 252 252 254 256 252 250 251 252 254 254 258 261 260 260 258 256 252 251 252 252 252 250 247 245 243 246 246 240 242 247 251 252 254 255 259 262 265 268
246 244 245 248 251 249 248 249 249 251 250 251 253 251 253 255 254 255 253 255 257 256 258 259 259 259 262 262 257 256 253 247 245 243 248 246 248 242 245 232 233 236 243 247 249 253 254 257 262
252 250 248 247 248 250 251 250 252 253 256 256 256 257 255 257 256 256 255 255 258 260 260 258 259 257 254 253 256 260 264 260 255 252 253 255 245 240 242 244 232 228 233 239 245 250 252 254 257
248 250 251 249 249 253 254 251 251 249 251 254 257 260 261 260 261 257 256 256 257 258 259 260 262 262 255 251 251 250 255 254 249 248 243 243 249 243 239 243 251 242 228 235 240 244 249 251 254
251 252 253 255 258 257 256 256 252 251 251 252 253 256 259 261 263 266 265 263 260 258 259 261 259 257 254 251 252 250 258 256 252 251 253 253 246 246 231 241 241 243 237 232 232 239 241 246 251
255 256 257 262 261 262 261 260 261 257 254 252 252 254 256 258 261 261 264 267 266 266 264 261 260 259 257 254 250 249 251 253 254 254 251 250 247 253 255 254 240 238 246 240 230 232 236 242 246
256 257 262 261 261 257 260 260 261 259 258 258 257 254 253 253 256 259 260 261 263 264 264 264 265 266 266 264 260 256 254 255 256 255 253 246 245 250 257 257 251 252 249 242 245 244 240 237 245
257 255 255 255 257 253 257 263 264 262 263 262 261 261 259 257 256 258 260 259 259 261 261 261 259 259 261 264 266 264 263 262 256 257 254 251 245 242 244 246 256 255 258 260 257 248 242 242 248
259 258 258 258 259 262 262 263 268 269 268 268 263 262 262 259 257 254 256 260 259 258 259 259 258 255 254 257 261 262 261 260 259 255 252 252 251 249 247 246 251 253 257 263 262 258 259 247 246
257 258 259 260 265 269 265 265 263 265 264 265 266 263 261 258 257 259 258 258 258 258 258 260 261 261 260 256 253 253 255 256 255 255 254 253 255 252 252 251 250 253 255 259 264 266 258 264 254
256 259 258 262 263 267 270 268 267 269 268 267 267 268 265 262 262 260 260 260 260 260 259 258 259 260 261 261 260 256 253 254 254 255 257 257 259 257 254 255 254 255 257 257 262 254 266 263 261
261 260 266 265 265 263 261 271 275 266 266 266 266 264 267 269 270 269 266 262 259 259 258 258 257 257 257 257 258 258 257 254 252 250 251 252 255 256 259 259 259 259 258 256 252 259 265 266 260
264 265 264 269 272 271 277 271 269 271 275 272 263 264 266 269 270 270 269 269 267 262 258 258 258 255 254 253 253 254 256 256 253 249 248 248 252 256 258 258 259 260 261 260 260 256 257 262 266
262 266 271 274 274 281 283 278 279 274 282 274 270 270 271 265 264 265 266 266 267 266 265 260 256 256 256 254 252 252 251 250 249 248 249 246 248 252 255 257 259 259 260 263 265 265 262 262 266
260 268 274 279 272 270 270 282 288 289 289 284 278 279 275 273 270 267 265 266 267 269 268 265 263 258 255 255 255 253 251 251 249 246 245 247 251 254 252 254 254 255 256 259 262 263 265 265 265
264 264 271 270 274 277 281 280 283 286 290 288 290 283 278 274 272 272 271 269 266 264 265 266 267 265 261 256 254 253 253 251 250 252 252 249 250 253 252 250 251 253 255 257 259 262 264 266 267
263 265 269 272 273 273 279 282 284 288 298 300 291 283 282 285 284 282 282 280 277 271 266 263 261 260 260 259 255 252 251 251 249 247 250 251 249 246 246 247 248 250 251 254 258 260 262 264 267
274 271 269 267 265 273 278 279 281 288 295 292 290 287 292 291 292 292 290 287 285 282 278 272 263 256 254 252 250 248 247 247 247 247 246 245 244 239 240 245 247 251 255 257 256 257 259 259 260
267 270 266 268 274 272 272 280 281 289 291 289 285 289 290 292 292 291 291 289 285 284 285 286 282 275 259 257 255 255 250 245 244 243 240 241 242 238 238 240 243 249 256 254 256 257 260 261 259